sat.trackr.live / text

‹ back to catalog

TELKOM 4 (MERAH PUTIH)

NORAD 43587 · 2018-064A

PAYLOAD ACTIVE UNKNOWN

§ Identity

Operator
Country
INDO
Launch date
2018-08-07
Launch site
AFETR
Launch vehicle
Mass (kg)
RCS (m²)

Purposes: comms

External: N2YO · Heavens-Above · Gunter

§ Orbital elements

Epoch: 2026-05-25T00:50:06.338112Z

Period
1,436.09 min
Inclination
0.0180°
Eccentricity
0.0001350
Mean motion
1.00271939 rev/d
Perigee alt
35,780.9 km
Apogee alt
35,792.2 km
Semi-major
42,164.7 km
B*
0.0000e+0
RAAN
283.4817°
Arg perigee
156.7556°
Mean anomaly
282.9194°
Rev number
2,864

§ Raw data

TELKOM 4 (MERAH PUTIH)1 43587U 18064A   26145.03479558 -.00000347  00000+0  00000+0 0  99982 43587   0.0180 283.4817 0001350 156.7556 282.9194  1.00271939 28642

JSON: /api/v1/satellites/43587 · /tle

For live sub-satellite position, see the globe view (requires WebGL).

§ Visibility from observer

Set your observer location to see the next 7 days of passes ≥ 10°. The values pass through the URL so the page stays shareable.

No JS? Fill the form by hand. The geolocation button needs JavaScript.